N2PUI Weather Reports


time (UTC)temp
C
wind
direction
speed
KPH
gust
KPH
rain 1hr
cm
rain 24hr
cm
rain mn
cm
humidity
%
barometer
mb
20260831065253 15 154 0.0 0.0 0.00 0.00 0.00 95 1021.3
20260831064748 15 154 0.0 0.0 0.00 0.00 0.00 95 1021.1
20260831064243 15 155 0.0 0.0 0.00 0.00 0.00 95 1021.1
20260831063740 15 156 0.0 0.0 0.00 0.00 0.00 95 1021.0
20260831063239 15 157 0.0 0.0 0.00 0.00 0.00 95 1021.4
20260831062734 15 142 0.0 0.0 0.00 0.00 0.00 95 1021.1
20260831062229 15 142 0.0 0.0 0.00 0.00 0.00 95 1021.3
20260831061727 15 142 0.0 0.0 0.00 0.00 0.00 95 1021.4
20260831061222 15 154 0.0 0.0 0.00 0.00 0.00 95 1021.6
20260831060718 15 157 0.0 0.0 0.00 0.00 0.00 95 1021.4
20260831060213 15 139 0.0 0.0 0.00 0.00 0.00 95 1021.8
20260831055713 15 139 0.0 0.0 0.00 0.00 0.00 95 1021.8
20260831055207 15 139 0.0 0.0 0.00 0.00 0.00 95 1022.0
20260831054702 15 139 0.0 0.0 0.00 0.00 0.00 95 1021.7
20260831054201 15 140 0.0 0.0 0.00 0.00 0.00 95 1021.6
20260831053656 15 139 0.0 0.0 0.00 0.00 0.00 95 1021.8
20260831053154 15 131 0.0 0.0 0.00 0.00 0.00 95 1021.9
20260831052649 15 163 0.0 0.0 0.00 0.00 0.00 94 1021.9
20260831052148 15 163 0.0 0.0 0.00 0.00 0.00 94 1021.9
20260831051646 15 163 0.0 0.0 0.00 0.00 0.00 94 1021.8
20260831051145 15 167 0.0 0.0 0.00 0.00 0.00 94 1021.6
20260831050640 15 172 0.0 0.0 0.00 0.00 0.00 94 1021.9
20260831050139 15 151 0.0 0.0 0.00 0.00 0.00 94 1021.7
20260831045638 16 144 0.0 0.0 0.00 0.00 0.00 94 1021.8
20260831045133 16 134 0.0 0.0 0.00 0.00 0.00 93 1021.7
20260831044629 16 154 0.0 0.0 0.00 0.00 0.00 93 1021.6
20260831044124 16 134 0.0 0.0 0.00 0.00 0.00 93 1021.7
20260831043619 15 134 0.0 0.0 0.00 0.00 0.00 93 1021.7
20260831043109 16 134 0.0 0.0 0.00 0.00 0.00 93 1021.9
20260831042608 16 137 0.0 0.0 0.00 0.00 0.00 92 1021.8
20260831042103 16 135 0.0 0.0 0.00 0.00 0.00 92 1021.5
20260831041558 16 135 0.0 0.0 0.00 0.00 0.00 92 1021.8
20260831041057 16 135 0.0 0.0 0.00 0.00 0.00 92 1021.8
20260831040552 16 136 0.0 0.0 0.00 0.00 0.00 92 1021.7
20260831040051 16 134 0.0 0.0 0.00 0.00 0.00 92 1021.8
20260831035543 16 138 0.0 0.0 0.00 0.00 0.00 91 1021.6
20260831035039 16 138 0.0 0.0 0.00 0.00 0.00 91 1021.6
20260831034538 17 138 0.0 0.0 0.00 0.00 0.00 91 1021.8
20260831034034 16 139 0.0 0.0 0.00 0.00 0.00 91 1021.6
20260831033530 17 139 0.0 0.0 0.00 0.00 0.00 90 1021.8
20260831033025 17 139 0.0 0.0 0.00 0.00 0.00 90 1021.7
20260831032524 17 139 0.0 0.0 0.00 0.00 0.00 90 1021.7
20260831032020 17 139 0.0 0.0 0.00 0.00 0.00 90 1021.8
20260831031519 17 140 0.0 0.0 0.00 0.00 0.00 90 1021.6
20260831031019 17 140 0.0 0.0 0.00 0.00 0.00 90 1021.8
20260831030518 17 140 0.0 0.0 0.00 0.00 0.00 90 1021.7
20260831030017 17 140 0.0 0.0 0.00 0.00 0.00 90 1021.9
20260831025510 17 138 0.0 0.0 0.00 0.00 0.00 89 1021.7
20260831025005 17 160 0.0 0.0 0.00 0.00 0.00 89 1021.6
20260831024501 18 160 0.0 0.0 0.00 0.00 0.00 89 1021.7
20260831024000 18 162 0.0 0.0 0.00 0.00 0.00 89 1021.5
20260831023458 18 162 0.0 0.0 0.00 0.00 0.00 89 1021.9
20260831022953 18 151 0.0 0.0 0.00 0.00 0.00 89 1021.7
20260831022452 18 148 0.0 0.0 0.00 0.00 0.00 88 1021.7
20260831021948 18 117 0.0 0.0 0.00 0.00 0.00 88 1021.8
20260831021446 18 145 0.0 0.0 0.00 0.00 0.00 88 1022.0
20260831020942 18 145 0.0 0.0 0.00 0.00 0.00 88 1021.9
20260831020437 18 144 0.0 0.0 0.00 0.00 0.00 88 1021.7
20260831015932 18 146 0.0 0.0 0.00 0.00 0.00 88 1021.6
20260831015428 18 147 0.0 0.0 0.00 0.00 0.00 87 1021.6
20260831014922 18 147 0.0 0.0 0.00 0.00 0.00 87 1021.7
20260831014417 18 147 0.0 0.0 0.00 0.00 0.00 87 1021.5
20260831013913 18 147 0.0 0.0 0.00 0.00 0.00 86 1021.6
20260831013409 18 128 0.0 0.0 0.00 0.00 0.00 86 1021.6
20260831012903 18 181 0.0 0.0 0.00 0.00 0.00 86 1021.5
20260831012358 18 182 0.0 0.0 0.00 0.00 0.00 86 1021.5
20260831011858 18 29 3.2 3.2 0.00 0.00 0.00 86 1021.7
20260831011352 18 104 1.6 3.2 0.00 0.00 0.00 85 1021.6
20260831010848 18 138 0.0 0.0 0.00 0.00 0.00 85 1021.7
20260831010348 18 116 1.6 1.6 0.00 0.00 0.00 84 1021.7
20260831005844 18 175 0.0 0.0 0.00 0.00 0.00 84 1021.3
20260831005339 19 165 0.0 0.0 0.00 0.00 0.00 83 1021.2
20260831004834 19 139 0.0 0.0 0.00 0.00 0.00 83 1021.3
20260831004330 19 152 0.0 0.0 0.00 0.00 0.00 83 1021.0
20260831003825 19 177 0.0 1.6 0.00 0.00 0.00 83 1021.2
20260831003322 19 193 3.2 3.2 0.00 0.00 0.00 83 1021.0
20260831002820 19 182 0.0 1.6 0.00 0.00 0.00 83 1020.8
20260831002314 19 284 1.6 3.2 0.00 0.00 0.00 83 1020.4
20260831001811 19 196 1.6 1.6 0.00 0.00 0.00 82 1020.6
20260831001305 19 161 0.0 1.6 0.00 0.00 0.00 82 1020.4
20260831000803 19 141 0.0 1.6 0.00 0.00 0.00 82 1020.5
20260831000303 19 120 1.6 1.6 0.00 0.00 0.00 82 1020.4
20260830235801 19 136 0.0 0.0 0.00 0.00 0.00 81 1020.5
20260830235256 20 144 1.6 3.2 0.00 0.00 0.00 81 1020.2
20260830234751 20 179 1.6 3.2 0.00 0.00 0.00 80 1020.4
20260830234247 20 227 4.8 4.8 0.00 0.00 0.00 80 1020.3
20260830233743 20 231 3.2 3.2 0.00 0.00 0.00 80 1020.3
20260830233238 20 185 1.6 1.6 0.00 0.00 0.00 80 1020.4
20260830232734 20 191 3.2 3.2 0.00 0.00 0.00 80 1020.4
20260830232229 20 298 3.2 3.2 0.00 0.00 0.00 81 1020.3
20260830231726 20 178 1.6 1.6 0.00 0.00 0.00 81 1020.2
20260830231225 20 144 0.0 1.6 0.00 0.00 0.00 81 1020.3
20260830230720 20 174 0.0 0.0 0.00 0.00 0.00 81 1020.5
20260830230215 20 166 0.0 0.0 0.00 0.00 0.00 81 1020.4
20260830225709 20 156 0.0 0.0 0.00 0.00 0.00 80 1020.3
20260830225204 20 161 0.0 0.0 0.00 0.00 0.00 80 1020.5
20260830224703 20 176 0.0 1.6 0.00 0.00 0.00 80 1020.4
20260830224159 20 155 0.0 1.6 0.00 0.00 0.00 80 1020.3
20260830223655 20 128 1.6 1.6 0.00 0.00 0.00 79 1020.4
20260830223150 20 138 0.0 1.6 0.00 0.00 0.00 79 1020.3
20260830222644 20 162 1.6 1.6 0.00 0.00 0.00 79 1020.1
20260830222140 20 178 0.0 0.0 0.00 0.00 0.00 79 1020.3
20260830221630 20 146 0.0 0.0 0.00 0.00 0.00 79 1020.0
20260830221126 20 187 1.6 1.6 0.00 0.00 0.00 79 1020.2
20260830220621 20 155 0.0 0.0 0.00 0.00 0.00 79 1020.3
20260830220120 20 149 0.0 0.0 0.00 0.00 0.00 79 1020.2
20260830215619 20 147 0.0 0.0 0.00 0.00 0.00 78 1020.2
20260830215114 21 180 0.0 1.6 0.00 0.00 0.00 78 1020.0
20260830214609 21 156 1.6 1.6 0.00 0.00 0.00 76 1020.0
20260830214103 21 159 0.0 0.0 0.00 0.00 0.00 76 1019.8
20260830213557 21 173 0.0 0.0 0.00 0.00 0.00 75 1020.2
20260830213053 21 240 3.2 3.2 0.00 0.00 0.00 75 1020.2
20260830212549 21 176 0.0 1.6 0.00 0.00 0.00 74 1020.3
20260830212043 21 309 1.6 3.2 0.00 0.00 0.00 75 1020.1
20260830211538 21 276 3.2 4.8 0.00 0.00 0.00 75 1020.3
20260830211037 21 178 1.6 1.6 0.00 0.00 0.00 75 1020.2
20260830210532 21 179 0.0 0.0 0.00 0.00 0.00 75 1020.3
20260830210026 21 197 1.6 1.6 0.00 0.00 0.00 74 1020.5
20260830205524 21 210 1.6 1.6 0.00 0.00 0.00 73 1020.1
20260830205020 21 186 1.6 3.2 0.00 0.00 0.00 73 1020.0
20260830204518 21 187 0.0 0.0 0.00 0.00 0.00 74 1020.2
20260830204013 21 184 0.0 0.0 0.00 0.00 0.00 74 1020.2
20260830203509 21 184 0.0 0.0 0.00 0.00 0.00 74 1020.2
20260830203004 21 184 0.0 0.0 0.00 0.00 0.00 75 1020.2
20260830202458 21 210 0.0 0.0 0.00 0.00 0.00 74 1020.4
20260830201954 21 189 0.0 0.0 0.00 0.00 0.00 73 1020.2
20260830201453 21 181 0.0 0.0 0.00 0.00 0.00 73 1020.4
20260830200948 21 154 1.6 1.6 0.00 0.00 0.00 72 1020.5
20260830200443 21 161 0.0 0.0 0.00 0.00 0.00 72 1020.3
20260830195937 21 176 0.0 0.0 0.00 0.00 0.00 72 1020.4
20260830195433 21 196 1.6 1.6 0.00 0.00 0.00 71 1020.4
20260830194930 21 0 3.2 3.2 0.00 0.00 0.00 71 1020.1
20260830194425 21 203 3.2 3.2 0.00 0.00 0.00 70 1020.1
20260830193924 21 196 1.6 3.2 0.00 0.00 0.00 70 1020.3
20260830193423 21 298 4.8 4.8 0.00 0.00 0.00 70 1020.3
20260830192919 22 282 3.2 3.2 0.00 0.00 0.00 71 1020.3
20260830192414 22 311 3.2 3.2 0.00 0.00 0.00 70 1020.4
20260830191914 22 310 8.0 11.3 0.00 0.00 0.00 69 1020.2
20260830191409 22 326 9.7 12.9 0.00 0.00 0.00 69 1020.3
20260830190905 22 261 4.8 4.8 0.00 0.00 0.00 69 1020.2
20260830190400 23 9 4.8 4.8 0.00 0.00 0.00 69 1020.2
20260830185859 23 30 3.2 3.2 0.00 0.00 0.00 69 1020.2
20260830185354 23 275 4.8 9.7 0.00 0.00 0.00 69 1020.1
20260830184849 23 197 1.6 1.6 0.00 0.00 0.00 71 1020.1
20260830184348 23 141 1.6 1.6 0.00 0.00 0.00 71 1020.3
20260830183843 24 169 1.6 1.6 0.00 0.00 0.00 70 1020.1
20260830183343 25 157 0.0 1.6 0.00 0.00 0.00 69 1020.2
20260830182838 25 185 0.0 0.0 0.00 0.00 0.00 67 1020.0
20260830182334 25 154 0.0 1.6 0.00 0.00 0.00 67 1020.0
20260830181830 25 192 1.6 1.6 0.00 0.00 0.00 67 1020.2
20260830181325 25 146 0.0 1.6 0.00 0.00 0.00 68 1020.1
20260830180824 25 200 1.6 1.6 0.00 0.00 0.00 65 1020.4
20260830180319 25 185 0.0 0.0 0.00 0.00 0.00 65 1020.0
20260830175818 24 183 1.6 3.2 0.00 0.00 0.00 64 1020.2
20260830175313 25 299 4.8 4.8 0.00 0.00 0.00 64 1020.2
20260830174809 25 263 3.2 3.2 0.00 0.00 0.00 65 1020.3
20260830174304 25 144 3.2 3.2 0.00 0.00 0.00 63 1020.3
20260830173803 25 189 1.6 1.6 0.00 0.00 0.00 62 1020.3
20260830173259 25 185 0.0 1.6 0.00 0.00 0.00 62 1020.3
20260830172755 25 179 0.0 1.6 0.00 0.00 0.00 67 1020.4
20260830172252 25 176 1.6 1.6 0.00 0.00 0.00 63 1020.5
20260830171747 25 186 1.6 1.6 0.00 0.00 0.00 64 1020.7
20260830171242 25 31 4.8 4.8 0.00 0.00 0.00 62 1020.5
20260830170737 25 147 3.2 4.8 0.00 0.00 0.00 63 1020.3
20260830170236 25 264 3.2 3.2 0.00 0.00 0.00 63 1020.7
20260830165735 25 157 0.0 0.0 0.00 0.00 0.00 62 1020.5
20260830165231 25 185 1.6 1.6 0.00 0.00 0.00 66 1020.5
20260830164727 25 182 3.2 3.2 0.00 0.00 0.00 62 1020.7
20260830164222 25 169 0.0 1.6 0.00 0.00 0.00 65 1020.8
20260830163714 25 196 3.2 3.2 0.00 0.00 0.00 64 1020.7
20260830163209 24 193 1.6 3.2 0.00 0.00 0.00 64 1020.5
20260830162704 25 317 4.8 4.8 0.00 0.00 0.00 62 1020.8
20260830162200 26 284 3.2 3.2 0.00 0.00 0.00 61 1021.0
20260830161654 26 174 1.6 3.2 0.00 0.00 0.00 63 1021.1
20260830161149 24 163 1.6 1.6 0.00 0.00 0.00 66 1021.0
20260830160645 23 174 1.6 1.6 0.00 0.00 0.00 67 1021.1
20260830160139 23 190 1.6 3.2 0.00 0.00 0.00 67 1021.1
20260830155636 23 190 1.6 1.6 0.00 0.00 0.00 66 1021.2
20260830155132 22 187 3.2 3.2 0.00 0.00 0.00 70 1021.1
20260830154626 22 171 3.2 3.2 0.00 0.00 0.00 71 1021.5
20260830154123 22 178 1.6 1.6 0.00 0.00 0.00 71 1021.3
20260830153619 22 172 4.8 4.8 0.00 0.00 0.00 71 1021.6
20260830153119 22 129 0.0 1.6 0.00 0.00 0.00 69 1021.6
20260830152618 22 192 3.2 3.2 0.00 0.00 0.00 71 1021.6
20260830152117 21 173 4.8 4.8 0.00 0.00 0.00 73 1021.4
20260830151612 21 117 4.8 4.8 0.00 0.00 0.00 72 1021.5
20260830151106 21 189 4.8 4.8 0.00 0.00 0.00 73 1021.4
20260830150601 20 179 0.0 0.0 0.00 0.00 0.00 72 1021.6
20260830150056 20 180 1.6 1.6 0.00 0.00 0.00 73 1021.5
20260830145555 20 148 1.6 3.2 0.00 0.00 0.00 74 1021.7
20260830145050 20 184 4.8 4.8 0.00 0.00 0.00 74 1021.5
20260830144546 20 132 3.2 3.2 0.00 0.00 0.00 73 1021.5
20260830144042 20 149 0.0 1.6 0.00 0.00 0.00 72 1021.8
20260830143538 20 108 3.2 3.2 0.00 0.00 0.00 71 1021.7
20260830143035 20 170 3.2 3.2 0.00 0.00 0.00 73 1021.8
20260830142531 20 169 0.0 0.0 0.00 0.00 0.00 73 1021.5
20260830142026 20 159 0.0 0.0 0.00 0.00 0.00 74 1021.3
20260830141522 20 174 4.8 4.8 0.00 0.00 0.00 75 1021.1
20260830141022 20 136 0.0 0.0 0.00 0.00 0.00 74 1021.1
20260830140521 20 188 1.6 3.2 0.00 0.00 0.00 74 1021.4
20260830140018 20 169 1.6 1.6 0.00 0.00 0.00 75 1021.5
20260830135512 19 88 0.0 0.0 0.00 0.00 0.00 77 1021.6
20260830135007 19 116 4.8 4.8 0.00 0.00 0.00 78 1021.7
20260830134503 18 147 0.0 0.0 0.00 0.00 0.00 80 1021.5
20260830133958 18 157 1.6 1.6 0.00 0.00 0.00 80 1021.6
20260830133454 18 144 0.0 1.6 0.00 0.00 0.00 82 1021.7
20260830132948 17 125 3.2 4.8 0.00 0.00 0.00 81 1022.0
20260830132445 17 134 0.0 1.6 0.00 0.00 0.00 83 1021.8
20260830131944 17 147 0.0 1.6 0.00 0.00 0.00 87 1021.8
20260830131443 16 162 0.0 0.0 0.00 0.00 0.00 88 1022.0
20260830130938 16 143 1.6 1.6 0.00 0.00 0.00 88 1022.0
20260830130434 16 128 1.6 3.2 0.00 0.00 0.00 89 1022.1
20260830125932 16 140 0.0 0.0 0.00 0.00 0.00 90 1022.1
20260830125428 16 157 0.0 0.0 0.00 0.00 0.00 90 1022.4
20260830124926 16 174 0.0 0.0 0.00 0.00 0.00 91 1022.0
20260830124421 16 175 0.0 0.0 0.00 0.00 0.00 91 1022.3
20260830123918 16 174 0.0 0.0 0.00 0.00 0.00 92 1022.1
20260830123414 16 175 0.0 0.0 0.00 0.00 0.00 93 1021.9
20260830122912 15 175 0.0 0.0 0.00 0.00 0.00 95 1022.1
20260830122406 15 167 0.0 0.0 0.00 0.00 0.00 95 1022.2
20260830121906 15 166 0.0 0.0 0.00 0.00 0.00 95 1022.4
20260830121401 14 143 3.2 3.2 0.00 0.00 0.00 95 1022.2
20260830120856 14 144 0.0 0.0 0.00 0.00 0.00 95 1022.2
20260830120352 13 130 0.0 0.0 0.00 0.00 0.00 95 1022.2
20260830115848 13 125 3.2 3.2 0.00 0.00 0.00 95 1021.9
20260830115344 13 152 0.0 0.0 0.00 0.00 0.00 95 1022.1
20260830114839 13 164 0.0 0.0 0.00 0.00 0.00 95 1022.1
20260830114336 13 161 0.0 0.0 0.00 0.00 0.00 95 1022.5
20260830113830 13 151 0.0 0.0 0.00 0.00 0.00 95 1022.5
20260830113325 13 151 0.0 0.0 0.00 0.00 0.00 95 1022.6
20260830112821 13 144 0.0 0.0 0.00 0.00 0.00 95 1022.4
20260830112317 13 165 0.0 0.0 0.00 0.00 0.00 95 1022.7
20260830111813 13 170 0.0 0.0 0.00 0.00 0.00 95 1022.6
20260830111309 13 140 0.0 0.0 0.00 0.00 0.00 95 1022.6
20260830110808 13 120 1.6 1.6 0.00 0.00 0.00 95 1022.6
20260830110305 13 151 0.0 0.0 0.00 0.00 0.00 95 1022.7
20260830105803 13 137 0.0 0.0 0.00 0.00 0.00 95 1022.5
20260830105300 13 136 0.0 0.0 0.00 0.00 0.00 95 1022.6
20260830104756 13 136 0.0 0.0 0.00 0.00 0.00 95 1022.7
20260830104253 13 136 0.0 0.0 0.00 0.00 0.00 95 1022.8
20260830103751 13 136 0.0 0.0 0.00 0.00 0.00 95 1022.5
20260830103247 13 136 0.0 0.0 0.00 0.00 0.00 95 1022.5
20260830102739 13 136 0.0 0.0 0.00 0.00 0.00 95 1022.7
20260830102235 13 136 0.0 0.0 0.00 0.00 0.00 95 1022.7
20260830101731 13 136 0.0 0.0 0.00 0.00 0.00 95 1022.5
20260830101226 13 136 0.0 0.0 0.00 0.00 0.00 95 1022.5
20260830100720 13 136 0.0 0.0 0.00 0.00 0.00 95 1022.6
20260830100215 13 136 0.0 0.0 0.00 0.00 0.00 95 1022.7
20260830095714 13 136 0.0 0.0 0.00 0.00 0.00 95 1022.5
20260830095210 13 137 0.0 0.0 0.00 0.00 0.00 95 1022.7
20260830094706 13 137 0.0 0.0 0.00 0.00 0.00 95 1022.8
20260830094201 12 137 0.0 0.0 0.00 0.00 0.00 95 1022.8
20260830093656 13 135 0.0 0.0 0.00 0.00 0.00 95 1022.9
20260830093153 13 138 0.0 0.0 0.00 0.00 0.00 95 1022.8
20260830092652 13 141 0.0 0.0 0.00 0.00 0.00 95 1022.8
20260830092149 13 155 0.0 0.0 0.00 0.00 0.00 95 1022.9
20260830091644 13 155 0.0 0.0 0.00 0.00 0.00 95 1022.7
20260830091142 13 180 0.0 0.0 0.00 0.00 0.00 95 1022.9
20260830090638 13 180 0.0 0.0 0.00 0.00 0.00 95 1022.6
20260830090133 13 180 0.0 0.0 0.00 0.00 0.00 95 1022.9
20260830085632 13 181 0.0 0.0 0.00 0.00 0.00 95 1022.6
20260830085128 13 180 0.0 0.0 0.00 0.00 0.00 95 1023.0
20260830084624 13 168 0.0 0.0 0.00 0.00 0.00 95 1023.0
20260830084119 13 167 0.0 0.0 0.00 0.00 0.00 95 1022.7
20260830083615 13 168 0.0 0.0 0.00 0.00 0.00 95 1022.8
20260830083114 13 167 0.0 0.0 0.00 0.00 0.00 95 1023.0
20260830082609 13 167 0.0 0.0 0.00 0.00 0.00 95 1022.9
20260830082105 13 167 0.0 0.0 0.00 0.00 0.00 95 1023.1
20260830081601 13 166 0.0 0.0 0.00 0.00 0.00 95 1023.0
20260830081100 13 167 0.0 0.0 0.00 0.00 0.00 95 1023.2
20260830080554 13 164 0.0 0.0 0.00 0.00 0.00 95 1023.2
20260830080050 13 163 0.0 0.0 0.00 0.00 0.00 95 1023.2
20260830075544 13 161 0.0 0.0 0.00 0.00 0.00 94 1023.1
20260830075039 13 149 0.0 0.0 0.00 0.00 0.00 94 1023.1
20260830074536 13 159 0.0 0.0 0.00 0.00 0.00 94 1023.2
20260830074031 13 164 0.0 0.0 0.00 0.00 0.00 94 1023.1
20260830073527 13 165 0.0 0.0 0.00 0.00 0.00 94 1023.4
20260830073022 13 144 0.0 0.0 0.00 0.00 0.00 94 1023.2
20260830072517 13 169 0.0 0.0 0.00 0.00 0.00 94 1023.0
20260830072017 13 169 0.0 0.0 0.00 0.00 0.00 94 1023.1
20260830071513 13 169 0.0 0.0 0.00 0.00 0.00 94 1023.2
20260830071010 13 169 0.0 0.0 0.00 0.00 0.00 94 1023.0
20260830070505 13 170 0.0 0.0 0.00 0.00 0.00 94 1023.2
20260830070005 13 165 0.0 0.0 0.00 0.00 0.00 94 1023.2